Home   Weather   Linden   Past weeks

Flag for Guyana Past Weather in Linden, Guyana — Yesterday and Last 2 Weeks

Now
73 °F

Passing clouds.


Feels Like: 70 °F
Forecast: 75 / 90 °F
Wind: No wind

Location: Georgetown/Cheddi Jagan International Airport

Current Time: Aug 31, 2016 at 4:12:04 AM

Latest Report: Aug 31, 2016 at 3:00 AM


Visibility: N/A

Pressure: 29.83 "Hg

Humidity: 94%

Dew Point: 72 °F

Location of LindenLocation

Past Weather in Linden — Graph

°F

Linden Temperature Yesterday

Maximum temperature yesterday: 91 °F (at 2:00 PM)
Minimum temperature yesterday: 73 °F (at 4:00 AM)
Average temperature yesterday: 82 °F

High & Low Weather Summary for the Past Weeks

 TemperatureHumidityPressure
High109 °F (Aug 22, 6:00 AM)100% (Aug 16, 8:00 AM)30.01 "Hg (Aug 16, 8:00 AM)
Low72 °F (Aug 20, 6:00 AM)34% (Aug 22, 6:00 AM)29.80 "Hg (Aug 18, 4:00 PM)
Average80 °F87%29.90 "Hg
* Reported Aug 16 3:00 AM — Aug 31 3:00 AM, Linden, Weather by CustomWeather, © 2016

Note: Actual official high and low records may vary slightly from our data, if they occured in-between our weather recording intervals... More about our weather records

Advertising

Linden Weather History for the Previous 24 Hours

Scroll right to see more
 ConditionsComfort  
Time TempWeatherWind HumidityBarometerVisibility
3:00 AM
Wed, Aug 31
73 °FPassing clouds.No wind94%29.83 "HgN/A
1:00 AM73 °FPassing clouds.5 mph94%29.89 "HgN/A
12:00 AM77 °FClear.2 mph94%29.89 "Hg10 mi
11:00 PM
Tue, Aug 30
79 °FClear.5 mph89%29.89 "Hg10 mi
10:00 PM79 °FClear.5 mph94%29.92 "Hg10 mi
9:00 PM79 °FClear.5 mph94%29.89 "Hg10 mi
8:00 PM79 °FClear.5 mph94%29.89 "Hg10 mi
7:00 PM81 °FPassing clouds.7 mph84%29.86 "HgN/A
6:00 PM84 °FPassing clouds.9 mph70%29.86 "HgN/A
5:00 PM88 °FPassing clouds.5 mph66%29.83 "HgN/A
4:00 PM90 °FScattered clouds.12 mph59%29.83 "HgN/A
3:00 PM91 °FScattered clouds.14 mph59%29.83 "HgN/A
2:00 PM91 °FPartly sunny.12 mph59%29.86 "HgN/A
1:00 PM90 °FPartly sunny.12 mph63%29.86 "HgN/A
12:00 PM90 °FPartly sunny.9 mph63%29.89 "HgN/A
11:00 AM90 °FPartly sunny.7 mph63%29.92 "HgN/A
10:00 AM86 °FPartly sunny.7 mph75%29.95 "HgN/A
9:00 AM84 °FPartly sunny.7 mph79%29.95 "HgN/A
8:00 AM81 °FScattered clouds.No wind89%29.95 "HgN/A
7:00 AM75 °FScattered clouds.5 mph100%29.92 "HgN/A
6:00 AM73 °FScattered clouds.5 mph100%29.89 "Hg4 mi
5:00 AM73 °FFog.5 mph100%29.89 "Hg0 mi
4:00 AM73 °FFog.5 mph100%29.89 "Hg1 mi
Weather by CustomWeather, © 2016

See weather overviewHow to use our weather pages